Whiteman AFB, MO

6:56 AM CST on November 13, 2019 (GMT -0600)
Whiteman Air Force Base

Weather History for KSZL - May, 2019

Change the Weather History Date:

Sunday, May 19, 2019

  Actual Average Record
Temperature  
Mean Temperature 63 °F -  
Max Temperature 70 °F 73 °F 91 °F (1998)
Min Temperature 55 °F 54 °F 43 °F (2015)
Degree Days  
Heating Degree Days 2    
Growing Degree Days 13 (Base 50)    
Moisture  
Dew Point 56 °F    
Average Humidity 80    
Maximum Humidity 100    
Minimum Humidity 53    
Precipitation  
Precipitation 0.00 in - - ()
Sea Level Pressure  
Sea Level Pressure 29.75 in    
Wind  
Wind Speed 12 mph (WSW)    
Max Wind Speed 18 mph    
Max Gust Speed 24 mph    
Visibility 10 miles    
Events Rain    
Averages and records for this station are not official NWS values.
T = Trace of Precipitation, MM = Missing Value Source: NWS Daily Summary

Daily Weather History Graph

Daily Weather History Graph

Search for Another Location

Airport or City:

Astronomy

May. 19, 2019 Rise Set
Actual Time 5:58 AM CDT 8:22 PM CDT
Civil Twilight 5:28 AM CDT 8:53 PM CDT
Nautical Twilight 4:51 AM CDT 9:30 PM CDT
Astronomical Twilight 4:10 AM CDT 10:12 PM CDT
Moon 9:23 PM CDT (5/19) 6:44 AM CDT (5/19)
Length of Visible Light 15h 24m
Length of Day
14h 23m
Full, 99% of the Moon is Illuminated
May 19
Full
May 26
Last Quarter
Jun 3
New
Jun 10
First Quarter
Jun 17
Full

Hourly Weather History & Observations

Time (CDT) Temp. Dew Point Humidity Pressure Visibility Wind Dir Wind Speed Gust Speed Precip Events Conditions
12:56 AM 62.6 °F 62.6 °F 100% 29.58 in 7.0 mi South 9.2 mph - N/A   Light Drizzle
2:56 AM 62.6 °F 62.6 °F 100% 29.57 in 7.0 mi SW 13.8 mph - N/A   Overcast
3:56 AM 62.6 °F 62.6 °F 100% 29.53 in 7.0 mi SSW 6.9 mph - N/A   Mostly Cloudy
4:56 AM 59.0 °F 59.0 °F 100% 29.55 in 7.0 mi South 8.1 mph - N/A   Mostly Cloudy
5:56 AM 60.8 °F 60.8 °F 100% 29.57 in 10.0 mi SW 18.4 mph 24.2 mph N/A   Mostly Cloudy
6:56 AM 58.1 °F 57.2 °F 97% 29.60 in 10.0 mi SW 12.7 mph - N/A   Scattered Clouds
7:58 AM 58.5 °F 57.4 °F 96% 29.65 in 10.0 mi WSW 12.7 mph - N/A   Overcast
8:01 AM 59.0 °F 57.2 °F 94% 29.65 in 10.0 mi SW 11.5 mph - N/A   Mostly Cloudy
8:06 AM 59.0 °F 57.2 °F 94% 29.65 in 10.0 mi WSW 11.5 mph - N/A   Mostly Cloudy
8:11 AM 59.0 °F 57.2 °F 94% 29.65 in 10.0 mi SW 10.4 mph - N/A   Mostly Cloudy
8:19 AM 59.0 °F 57.2 °F 94% 29.66 in 4.0 mi SW 13.8 mph - N/A   Mostly Cloudy
8:21 AM 59.0 °F 57.2 °F 94% 29.66 in 10.0 mi WSW 15.0 mph - N/A   Mostly Cloudy
8:56 AM 57.9 °F 57.9 °F 100% 29.68 in 10.0 mi WSW 13.8 mph - N/A   Overcast
10:00 AM 61.3 °F 59.5 °F 94% 29.71 in 10.0 mi West 10.4 mph - N/A   Mostly Cloudy
10:56 AM 65.1 °F 60.4 °F 85% 29.74 in 10.0 mi West 13.8 mph - N/A   Mostly Cloudy
11:06 AM 64.4 °F 59.0 °F 83% 29.74 in 10.0 mi West 12.7 mph - N/A   Scattered Clouds
11:31 AM 66.2 °F 60.8 °F 83% 29.75 in 10.0 mi WNW 16.1 mph 23.0 mph N/A   Light Drizzle
11:56 AM 64.9 °F 61.9 °F 90% 29.76 in 10.0 mi West 13.8 mph - 0.00 in   Mostly Cloudy
12:31 PM 64.4 °F 59.0 °F 83% 29.78 in 10.0 mi WNW 12.7 mph - N/A Rain Light Rain
12:43 PM 64.4 °F 59.0 °F 83% 29.79 in 10.0 mi West 10.4 mph - N/A   Scattered Clouds
12:56 PM 66.6 °F 57.9 °F 74% 29.79 in 10.0 mi West 15.0 mph 21.9 mph 0.00 in   Mostly Cloudy
1:26 PM 66.2 °F 55.4 °F 68% 29.80 in 10.0 mi West 15.0 mph - N/A   Mostly Cloudy
1:46 PM 66.2 °F 55.4 °F 68% 29.81 in 10.0 mi West 15.0 mph 20.7 mph N/A   Scattered Clouds
1:56 PM 66.9 °F 54.3 °F 64% 29.81 in 10.0 mi WSW 12.7 mph 20.7 mph N/A   Mostly Cloudy
2:02 PM 68.0 °F 53.6 °F 60% 29.81 in 10.0 mi West 15.0 mph 23.0 mph N/A   Scattered Clouds
2:56 PM 68.9 °F 54.0 °F 59% 29.82 in 10.0 mi West 13.8 mph - N/A   Scattered Clouds
3:56 PM 69.3 °F 53.4 °F 57% 29.84 in 10.0 mi West 15.0 mph - N/A   Mostly Cloudy
4:07 PM 69.8 °F 51.8 °F 53% 29.84 in 10.0 mi WNW 12.7 mph 20.7 mph N/A   Partly Cloudy
4:56 PM 69.1 °F 51.3 °F 53% 29.85 in 10.0 mi West 17.3 mph 21.9 mph N/A   Mostly Cloudy
5:56 PM 69.1 °F 51.3 °F 53% 29.86 in 10.0 mi West 12.7 mph - N/A   Mostly Cloudy
6:56 PM 67.1 °F 49.8 °F 54% 29.87 in 10.0 mi West 12.7 mph - N/A   Scattered Clouds
7:56 PM 64.4 °F 50.2 °F 60% 29.89 in 10.0 mi West 8.1 mph - N/A   Partly Cloudy
8:56 PM 60.1 °F 49.8 °F 69% 29.91 in 10.0 mi West 5.8 mph - N/A   Partly Cloudy
9:56 PM 57.9 °F 50.0 °F 75% 29.94 in 10.0 mi West 4.6 mph - N/A   Partly Cloudy
10:56 PM 57.0 °F 50.5 °F 79% 29.95 in 10.0 mi NW 3.5 mph - N/A   Partly Cloudy
11:56 PM 55.4 °F 50.0 °F 82% 29.96 in 10.0 mi WNW 4.6 mph - N/A   Partly Cloudy